Goodland, KS

1:35 PM MDT on April 26, 2017 (GMT -0600)
Renner-Goodland Municipal

Weather History for KGLD - July, 2013

Change the Weather History Date:

Tuesday, July 30, 2013

  Actual Average Record
Temperature  
Mean Temperature 75 °F 76 °F  
Max Temperature 88 °F 89 °F 106 °F (1935)
Min Temperature 62 °F 62 °F 43 °F (1971)
Degree Days  
Heating Degree Days 0 0  
Month to date heating degree days 7 0  
Since 1 June heating degree days 38 37  
Since 1 July heating degree days 7 0  
Cooling Degree Days 10 11  
Month to date cooling degree days 311 323  
Year to date cooling degree days 657 543  
Since 1 June cooling degree days 568 502  
Growing Degree Days 26 (Base 50)    
Moisture  
Dew Point 61 °F    
Average Humidity 69    
Maximum Humidity 100    
Minimum Humidity 37    
Precipitation  
Precipitation 0.00 in 0.11 in 1.23 in (1979)
Month to date precipitation 0.45 3.36  
Year to date precipitation 7.85 13.09  
Snow  
Snow 0.00 in 0.00 in - ()
Month to date snowfall 0.0 0.0  
Since 1 June snowfall 0.0 0.0  
Since 1 July snowfall 0.0 0.0  
Snow Depth 0.00 in    
Sea Level Pressure  
Sea Level Pressure 30.10 in    
Wind  
Wind Speed 7 mph (SW)    
Max Wind Speed 24 mph    
Max Gust Speed 31 mph    
Visibility 6 miles    
Events Fog , Thunderstorm    
T = Trace of Precipitation, MM = Missing Value Source: NWS Daily Summary

Daily Weather History Graph

Daily Weather History Graph

Search for Another Location

Airport or City:

Trip Planner

Search our weather history database for the weather conditions in past years. The results will help you decide how hot, cold, wet, or windy it might be!

Date:

Astronomy

Jul. 30, 2013 Rise Set
Actual Time 5:45 AM MDT 8:00 PM MDT
Civil Twilight 5:15 AM MDT 8:30 PM MDT
Nautical Twilight 4:37 AM MDT 9:07 PM MDT
Astronomical Twilight 3:57 AM MDT 9:48 PM MDT
Moon 12:03 AM MDT (7/30) 2:22 PM MDT (7/30)
Length of Visible Light 15h 15m
Length of Day
14h 15m
Last Quarter, 40% of the Moon is Illuminated
Jul 30
Last Quarter
Aug 6
New
Aug 14
First Quarter
Aug 20
Full
Aug 28
Last Quarter

Hourly Weather History & Observations

Time (MDT) Temp. Heat Index Dew Point Humidity Pressure Visibility Wind Dir Wind Speed Gust Speed Precip Events Conditions
12:27 AM 64.4 °F - 64.4 °F 100% 30.14 in 4.0 mi ESE 3.5 mph - N/A   Overcast
12:37 AM 64.4 °F - 64.4 °F 100% 30.14 in 4.0 mi Calm Calm - N/A   Overcast
12:53 AM 64.9 °F - 63.0 °F 93% 30.04 in 4.0 mi Calm Calm - N/A   Overcast
1:53 AM 64.9 °F - 63.0 °F 93% 30.04 in 4.0 mi Calm Calm - N/A   Overcast
2:32 AM 64.4 °F - 64.4 °F 100% 30.16 in 3.0 mi SSW 3.5 mph - N/A   Overcast
2:53 AM 64.9 °F - 64.0 °F 97% 30.05 in 4.0 mi SSW 3.5 mph - N/A   Overcast
3:02 AM 64.4 °F - 62.6 °F 94% 30.17 in 4.0 mi SW 4.6 mph - N/A   Overcast
3:10 AM 66.2 °F - 62.6 °F 88% 30.17 in 5.0 mi SW 5.8 mph - N/A   Overcast
3:53 AM 64.0 °F - 62.1 °F 93% 30.04 in 4.0 mi WSW 3.5 mph - N/A   Scattered Clouds
4:33 AM 62.6 °F - 60.8 °F 94% 30.16 in 2.5 mi West 3.5 mph - N/A   Clear
4:41 AM 62.6 °F - 62.6 °F 100% 30.16 in 3.0 mi West 4.6 mph - N/A   Scattered Clouds
4:50 AM 64.4 °F - 62.6 °F 94% 30.16 in 3.0 mi West 5.8 mph - N/A   Mostly Cloudy
4:53 AM 64.0 °F - 63.0 °F 96% 30.05 in 3.0 mi West 4.6 mph - N/A   Mostly Cloudy
4:58 AM 64.4 °F - 62.6 °F 94% 30.16 in 2.0 mi West 9.2 mph - N/A   Mostly Cloudy
5:02 AM 62.6 °F - 62.6 °F 100% 30.16 in 0.8 mi West 10.4 mph - N/A   Overcast
5:44 AM 62.6 °F - 62.6 °F 100% 30.16 in 0.2 mi NW 6.9 mph - N/A Fog Fog
5:53 AM 63.0 °F - 63.0 °F 100% 30.05 in 0.2 mi NNW 4.6 mph - N/A Fog Fog
6:53 AM 63.0 °F - 62.1 °F 97% 30.08 in 0.2 mi Calm Calm - N/A Fog Fog
7:19 AM 64.4 °F - 62.6 °F 94% 30.19 in 1.0 mi WNW 3.5 mph - N/A   Overcast
7:31 AM 64.4 °F - 62.6 °F 94% 30.19 in 2.0 mi NNW 4.6 mph - N/A   Overcast
7:50 AM 62.6 °F - 62.6 °F 100% 30.19 in 1.8 mi NW 4.6 mph - N/A   Overcast
7:53 AM 64.0 °F - 63.0 °F 96% 30.09 in 1.5 mi NW 3.5 mph - N/A   Overcast
8:09 AM 62.6 °F - 62.6 °F 100% 30.19 in 3.0 mi WNW 3.5 mph - N/A   Overcast
8:21 AM 64.4 °F - 62.6 °F 94% 30.19 in 2.5 mi Calm Calm - N/A   Overcast
8:28 AM 64.4 °F - 62.6 °F 94% 30.19 in 4.0 mi Variable 3.5 mph - N/A   Overcast
8:48 AM 69.8 °F - 62.6 °F 78% 30.19 in 6.0 mi Calm Calm - N/A   Haze
8:53 AM 70.0 °F - 64.0 °F 81% 30.08 in 6.0 mi Calm Calm - N/A   Haze
9:53 AM 75.9 °F - 61.0 °F 60% 30.08 in 10.0 mi NW 4.6 mph - N/A   Clear
10:53 AM 79.0 °F - 60.1 °F 52% 30.07 in 10.0 mi Variable 5.8 mph - N/A   Clear
11:53 AM 80.1 °F 80.7 °F 59.0 °F 48% 30.06 in 10.0 mi Calm Calm - N/A   Clear
12:53 PM 82.9 °F 82.8 °F 59.0 °F 44% 30.05 in 10.0 mi ENE 5.8 mph - N/A   Clear
1:53 PM 84.0 °F 83.8 °F 59.0 °F 43% 30.04 in 10.0 mi Variable 6.9 mph - N/A   Partly Cloudy
2:53 PM 86.0 °F 85.4 °F 59.0 °F 40% 30.03 in 10.0 mi SE 9.2 mph - N/A   Clear
3:53 PM 86.0 °F 85.0 °F 57.9 °F 38% 30.02 in 10.0 mi ESE 8.1 mph - N/A   Clear
4:23 PM 87.8 °F 86.5 °F 57.2 °F 35% 30.15 in 10.0 mi East 9.2 mph - N/A Thunderstorm Clear
4:53 PM 82.9 °F 83.2 °F 60.1 °F 46% 30.03 in 10.0 mi ENE 24.2 mph 29.9 mph N/A Thunderstorm Clear
5:09 PM 80.6 °F 80.8 °F 57.2 °F 45% 30.15 in 10.0 mi East 19.6 mph 27.6 mph N/A   Clear
5:53 PM 82.0 °F 81.7 °F 57.0 °F 42% 30.02 in 10.0 mi ESE 13.8 mph - N/A   Clear
6:53 PM 81.0 °F 81.6 °F 60.1 °F 49% 30.01 in 10.0 mi ESE 11.5 mph - N/A   Clear
7:53 PM 75.9 °F - 61.0 °F 60% 30.02 in 10.0 mi SE 5.8 mph - N/A   Clear
8:53 PM 71.1 °F - 60.1 °F 68% 30.04 in 10.0 mi SSE 8.1 mph - N/A   Clear
9:53 PM 70.0 °F - 61.0 °F 73% 30.06 in 10.0 mi SSE 9.2 mph - N/A   Clear
10:53 PM 69.1 °F - 61.0 °F 75% 30.05 in 10.0 mi SSE 12.7 mph - N/A   Clear
11:53 PM 69.1 °F - 62.1 °F 78% 30.06 in 10.0 mi SSE 13.8 mph - N/A   Clear